Wind_Speed
17 17 16 15 14 13 12 11 12 10 10 9 9 9 9 9 10 10 12 13 13 15 16 16 18 19 18 17 17 17 17 16 15 15 14 14 14 14 13 13 12 11 10 9
18 17 17 15 14 13 12 12 11 11 10 10 10 10 10 10 11 11 12 13 14 15 16 17 18 18 18 18 18 17 17 17 16 15 15 14 14 14 14 13 13 12 11 10
19 18 17 15 13 13 13 12 11 11 10 11 10 10 10 11 11 11 12 13 14 16 16 17 19 19 18 18 18 18 17 17 16 16 16 15 14 14 14 14 13 12 12 12
20 19 18 14 14 13 12 12 11 10 10 11 11 11 11 11 12 12 12 14 15 16 17 18 19 19 18 18 18 17 17 18 18 17 16 15 15 14 14 13 13 13 13 13
21 20 18 16 15 14 13 12 11 10 10 10 11 11 11 11 11 11 12 14 15 16 17 18 18 19 19 18 18 17 17 17 18 18 17 16 16 15 15 15 14 13 13 13
22 20 18 16 16 15 14 12 11 10 10 10 11 11 10 11 11 12 12 14 15 16 17 17 18 18 18 18 18 17 18 18 17 18 17 17 17 17 16 16 15 15 14 14
23 22 18 17 16 16 15 12 12 11 11 11 11 11 11 11 11 11 12 13 15 15 16 17 17 18 18 18 18 18 18 18 18 18 18 18 17 17 17 16 16 16 16 15
24 23 19 18 18 17 15 14 13 12 11 11 11 11 11 12 12 12 12 13 14 15 16 16 17 18 18 18 19 19 19 19 19 20 19 19 19 18 17 17 17 17 17 16
25 22 20 20 19 17 17 15 14 12 11 11 11 11 11 12 13 13 12 13 14 15 16 16 17 18 18 18 18 18 19 19 19 19 19 19 19 19 18 17 17 17 18 18
26 23 22 21 20 18 17 16 15 14 13 12 11 11 11 12 13 13 13 14 14 15 15 16 17 17 18 17 17 17 18 19 19 19 19 19 19 19 19 19 18 18 18 19
26 24 24 22 21 20 18 17 16 16 15 14 13 12 12 13 14 14 14 14 15 15 15 15 16 17 18 19 19 19 18 19 19 19 19 18 18 18 18 19 19 19 20 20
26 25 24 23 22 21 19 18 18 16 15 15 14 14 13 13 14 15 15 15 15 16 16 15 15 16 17 18 19 18 18 17 18 18 18 18 18 19 19 19 19 20 21 21
27 27 25 24 23 22 20 19 18 17 16 16 15 15 15 14 15 16 15 16 16 16 16 15 15 16 16 16 16 17 17 17 18 18 19 19 19 19 20 20 20 20 21 21
28 27 26 24 22 22 21 20 19 18 17 16 16 16 15 15 15 16 16 16 16 16 16 16 16 16 16 17 17 17 18 18 18 18 18 19 20 20 21 21 22 23 23 24
30 29 27 26 24 23 23 21 20 19 17 17 16 16 16 16 16 16 16 17 17 17 17 17 17 17 17 18 18 18 19 19 19 20 20 20 21 22 22 23 24 25 25 26
31 30 29 28 27 26 24 23 22 20 19 18 18 17 17 17 18 17 17 18 18 18 18 18 18 18 18 18 19 19 20 20 20 21 21 21 22 23 23 24 25 26 26 27
32 31 30 28 28 27 26 25 23 21 21 20 20 20 19 18 18 18 18 18 18 18 18 18 18 19 19 19 19 20 21 21 21 22 22 22 23 23 24 26 27 27 28 30
33 32 31 30 29 28 27 27 26 24 23 23 22 22 21 20 20 19 19 19 19 20 20 19 20 20 20 20 20 21 22 22 23 23 24 24 24 25 26 27 28 29 30 31
33 32 31 31 32 31 29 29 28 27 25 25 24 24 23 23 22 22 22 22 21 21 21 21 21 21 21 21 21 22 23 23 24 24 25 25 26 26 27 28 29 30 31 31
32 32 32 32 32 32 31 30 29 28 27 27 25 24 24 24 24 23 23 23 23 23 23 23 23 22 22 22 23 23 24 24 25 25 26 26 27 28 28 29 29 31 31 32
31 31 31 32 32 32 32 31 30 29 29 28 27 26 25 25 25 25 24 24 25 25 25 24 24 24 24 24 24 25 25 26 26 27 27 28 29 29 30 31 32 33 34 35
31 31 31 31 32 33 32 32 31 30 30 29 28 27 26 26 26 26 25 25 25 25 25 26 26 26 26 25 26 26 27 27 27 28 29 29 30 31 32 32 33 34 36 37
31 31 31 31 32 33 33 33 32 31 31 31 30 29 28 27 27 27 27 26 26 26 25 25 26 26 27 27 28 28 28 28 29 30 30 31 32 32 33 34 35 36 37 38
32 32 32 32 32 33 34 33 33 33 33 32 31 30 30 29 29 28 28 28 28 27 27 26 26 26 27 27 28 29 30 30 31 32 32 33 34 35 35 36 36 37 38 39
32 33 33 33 33 33 33 33 34 33 33 32 32 32 31 30 29 29 29 29 29 28 28 28 28 28 28 29 29 30 31 32 32 33 34 34 35 36 36 37 37 38 39 40
32 33 33 33 33 34 33 33 34 34 33 32 32 32 31 31 30 30 29 29 29 29 30 30 30 30 30 30 31 31 32 32 33 34 35 35 35 36 37 37 38 39 39 40
32 33 33 33 33 34 34 33 33 34 35 34 33 32 32 32 32 31 31 31 31 31 32 31 31 31 31 31 32 32 33 33 34 34 35 35 36 37 37 38 39 39 40 41
Wind_Direction
239 240 241 243 246 249 253 253 251 249 248 247 242 238 238 233 229 225 216 212 208 207 207 207 206 205 207 208 211 212 215 217 218 220 220 219 218 219 222 223 223 225 229 235
236 239 241 241 242 246 248 250 249 247 248 249 248 244 240 234 228 225 220 216 209 206 206 208 205 205 208 209 210 213 217 218 219 221 222 222 224 225 226 227 229 230 232 238
234 237 240 239 241 242 245 250 252 248 247 248 247 242 238 233 231 228 219 218 214 210 210 210 206 206 209 211 213 215 218 220 219 222 225 226 227 229 228 229 232 235 238 242
234 236 237 234 240 242 245 246 247 248 247 244 244 245 241 234 231 229 224 217 211 209 210 208 207 207 208 211 213 217 221 223 222 223 225 227 229 230 230 231 235 238 241 245
233 234 236 235 239 242 244 244 243 243 246 246 239 239 240 236 231 226 222 216 211 211 212 211 208 208 211 213 214 216 219 222 223 223 224 227 230 231 233 233 235 239 243 248
232 235 234 234 235 237 240 240 240 240 242 244 239 237 238 239 236 230 221 214 209 208 211 210 210 212 214 215 216 218 220 222 223 224 226 229 231 233 234 235 236 240 245 249
231 234 233 233 234 235 236 236 238 238 237 237 236 236 237 235 234 228 218 210 207 208 208 209 213 215 216 216 217 220 224 226 226 228 229 230 233 237 237 238 240 242 247 251
229 232 230 232 232 233 234 235 239 238 235 233 233 235 237 235 229 224 218 211 210 211 211 212 215 214 215 215 218 221 225 228 231 231 233 235 237 239 240 243 245 247 251 253
230 231 229 229 231 233 234 235 237 237 235 232 234 235 234 233 226 220 219 214 213 215 217 217 215 215 216 216 221 224 228 230 231 233 234 236 238 239 241 245 249 250 252 255
228 227 227 229 229 230 231 233 236 236 234 232 234 235 234 232 225 222 223 222 220 219 220 218 218 219 221 225 228 230 231 233 234 236 237 239 240 242 244 246 248 250 253 256
225 223 224 226 227 229 233 234 236 238 235 232 234 234 233 234 228 223 223 224 225 224 224 224 223 224 227 230 231 232 235 236 237 237 238 239 242 245 247 249 250 253 256 258
223 221 224 224 226 228 232 232 235 236 233 232 234 233 233 232 228 225 225 226 228 228 228 228 228 229 232 234 234 234 236 236 237 238 240 242 245 247 248 251 253 255 257 260
222 223 223 222 225 227 230 232 234 236 236 234 234 233 232 231 230 230 230 228 227 227 229 231 232 232 231 231 233 235 236 238 238 240 242 244 248 250 251 254 256 258 261 264
222 223 221 221 223 224 228 233 234 232 231 232 233 231 230 230 231 232 231 228 228 228 230 231 231 232 233 234 235 237 239 240 241 243 246 249 251 255 257 259 261 263 265 267
223 223 223 222 223 225 227 229 230 230 230 231 231 230 232 232 233 233 231 229 229 230 232 233 234 236 238 237 238 240 242 243 244 247 250 254 257 259 261 263 265 267 268 271
222 224 224 224 224 225 226 226 228 230 232 231 232 232 235 235 235 234 234 233 234 234 234 236 237 240 242 242 243 244 245 247 249 251 254 257 260 262 263 265 267 268 271 273
224 224 225 225 224 224 225 227 228 230 234 232 230 232 235 237 236 236 236 237 237 238 239 240 241 243 245 246 246 247 248 250 253 255 257 260 262 265 267 268 270 272 274 276
224 224 224 225 224 224 226 227 229 231 235 235 233 234 237 240 239 237 238 238 240 241 241 242 243 244 246 248 249 250 252 255 257 259 260 262 265 269 271 273 274 275 277 279
223 223 223 225 225 225 225 227 230 231 233 235 234 234 237 238 238 238 238 238 239 240 242 244 246 247 249 250 252 254 255 257 259 260 263 265 268 271 274 275 276 278 279 281
223 224 224 224 225 226 227 228 230 233 234 235 235 236 238 238 238 239 240 240 240 242 243 244 246 248 252 255 256 257 259 260 263 264 265 268 271 273 275 276 277 279 281 282
221 223 224 225 226 227 228 229 230 233 234 235 236 237 239 240 239 239 241 243 243 243 244 246 249 251 254 257 260 261 263 264 266 267 269 272 274 275 277 279 280 281 282 283
222 223 224 227 227 226 227 228 230 232 234 236 236 237 240 241 241 240 241 244 245 244 246 248 251 254 256 259 262 264 265 266 268 270 271 273 275 277 279 281 282 283 284 285
224 224 226 227 227 226 227 228 230 232 234 236 237 238 240 242 243 243 243 245 246 246 247 250 253 255 257 259 261 264 266 268 270 272 273 275 277 279 281 282 284 285 286 288
226 226 227 227 228 228 228 229 230 231 234 236 236 238 240 242 242 243 243 245 247 249 250 252 254 256 258 260 263 265 268 270 272 273 275 277 279 281 282 283 285 286 288 289
227 227 227 227 227 228 229 230 230 231 234 235 235 237 240 241 242 243 244 247 249 250 251 253 256 258 261 263 266 268 270 271 273 275 277 280 281 282 283 284 285 287 289 291
227 227 229 230 229 230 231 232 232 233 235 237 237 238 240 241 242 244 246 248 250 251 253 256 259 261 263 265 267 270 272 273 275 277 279 281 283 284 284 286 287 289 291 292
227 226 227 229 230 231 232 232 233 234 235 237 238 239 240 241 243 246 248 250 253 255 256 258 261 264 266 268 270 272 273 275 276 278 280 282 283 284 285 287 288 290 291 293
Height
5802 5804 5806 5807 5807 5808 5809 5810 5811 5812 5813 5814 5814 5815 5816 5817 5818 5819 5820 5822 5824 5827 5829 5832 5835 5838 5841 5844 5846 5849 5851 5854 5856 5857 5859 5860 5862 5864 5865 5867 5868 5869 5869 5870
5798 5800 5801 5802 5804 5805 5805 5806 5808 5809 5810 5811 5811 5812 5813 5814 5815 5816 5818 5820 5822 5824 5826 5829 5832 5835 5838 5841 5844 5846 5848 5851 5853 5855 5856 5858 5859 5861 5863 5864 5865 5866 5867 5868
5794 5795 5796 5799 5801 5801 5802 5803 5804 5806 5807 5807 5808 5809 5810 5811 5812 5813 5815 5817 5818 5821 5824 5827 5830 5833 5835 5838 5841 5843 5845 5848 5849 5852 5853 5855 5857 5858 5860 5861 5863 5864 5864 5865
5789 5792 5793 5798 5797 5798 5799 5800 5801 5802 5803 5804 5805 5806 5807 5808 5809 5810 5812 5814 5816 5818 5820 5823 5826 5829 5832 5835 5838 5840 5842 5844 5846 5848 5850 5852 5854 5855 5857 5858 5859 5861 5861 5862
5784 5786 5789 5792 5793 5794 5795 5797 5798 5799 5800 5801 5802 5803 5804 5805 5807 5808 5809 5811 5813 5815 5818 5820 5823 5826 5829 5832 5834 5837 5839 5841 5843 5845 5847 5849 5851 5852 5853 5855 5856 5857 5858 5859
5779 5781 5784 5789 5789 5790 5793 5794 5795 5796 5797 5798 5799 5800 5802 5802 5803 5804 5806 5808 5810 5812 5815 5817 5820 5823 5826 5829 5831 5833 5836 5838 5840 5842 5844 5846 5847 5849 5850 5851 5853 5854 5854 5855
5774 5776 5780 5784 5785 5787 5790 5792 5791 5792 5793 5794 5796 5797 5798 5799 5800 5801 5803 5805 5807 5809 5812 5815 5817 5820 5823 5825 5828 5830 5832 5834 5836 5838 5840 5842 5844 5845 5846 5847 5849 5850 5851 5852
5768 5772 5778 5779 5780 5783 5785 5786 5787 5789 5790 5791 5792 5793 5795 5796 5797 5799 5800 5802 5805 5807 5809 5811 5814 5816 5819 5821 5824 5826 5829 5831 5833 5835 5836 5838 5840 5841 5842 5843 5845 5846 5847 5847
5764 5769 5772 5773 5776 5778 5780 5782 5784 5785 5787 5788 5789 5790 5791 5793 5794 5796 5798 5800 5802 5804 5806 5808 5811 5813 5816 5818 5820 5823 5825 5827 5828 5830 5832 5834 5835 5837 5838 5839 5840 5841 5842 5843
5758 5762 5765 5768 5770 5773 5775 5778 5779 5781 5783 5784 5786 5787 5788 5790 5791 5793 5795 5797 5799 5801 5803 5806 5808 5810 5812 5814 5817 5819 5821 5822 5824 5826 5828 5829 5831 5832 5834 5835 5836 5837 5837 5838
5751 5755 5759 5762 5765 5768 5771 5773 5775 5777 5779 5781 5782 5784 5785 5786 5788 5790 5792 5794 5796 5798 5801 5803 5804 5807 5809 5811 5813 5814 5816 5818 5820 5821 5823 5825 5826 5828 5829 5830 5831 5832 5832 5833
5746 5750 5753 5757 5760 5763 5766 5768 5771 5773 5775 5776 5778 5780 5782 5783 5785 5787 5789 5790 5793 5795 5797 5799 5801 5803 5805 5807 5809 5810 5812 5814 5815 5817 5819 5820 5821 5823 5823 5825 5825 5826 5827 5827
5739 5743 5747 5751 5754 5758 5760 5763 5766 5768 5770 5772 5774 5776 5778 5780 5782 5783 5785 5787 5789 5791 5793 5796 5798 5799 5801 5803 5805 5807 5808 5810 5811 5812 5814 5815 5817 5818 5819 5820 5820 5820 5821 5821
5732 5736 5741 5745 5749 5752 5755 5758 5761 5763 5765 5768 5770 5772 5774 5776 5778 5780 5782 5784 5786 5788 5790 5792 5794 5795 5797 5799 5801 5802 5804 5805 5806 5808 5809 5810 5811 5812 5813 5814 5814 5814 5814 5814
5726 5730 5734 5739 5743 5746 5750 5753 5756 5758 5761 5763 5766 5768 5770 5772 5774 5776 5778 5780 5782 5784 5786 5788 5790 5791 5793 5795 5796 5797 5799 5800 5801 5803 5804 5805 5806 5807 5807 5808 5808 5808 5808 5807
5719 5723 5727 5732 5736 5740 5744 5747 5750 5753 5756 5759 5761 5763 5765 5767 5769 5771 5773 5775 5777 5779 5782 5783 5785 5786 5788 5790 5791 5793 5794 5795 5796 5797 5798 5799 5800 5800 5800 5801 5800 5800 5800 5800
5712 5716 5720 5725 5729 5733 5737 5741 5745 5748 5751 5753 5756 5758 5760 5762 5764 5766 5768 5770 5772 5774 5777 5778 5780 5781 5783 5784 5786 5787 5788 5789 5790 5791 5792 5793 5793 5793 5793 5793 5793 5793 5792 5791
5705 5709 5713 5717 5722 5726 5731 5735 5738 5741 5744 5747 5750 5752 5755 5757 5759 5761 5763 5765 5767 5769 5771 5773 5775 5776 5778 5779 5780 5781 5782 5783 5784 5785 5786 5786 5786 5786 5786 5785 5785 5784 5783 5782
5697 5701 5706 5710 5714 5719 5724 5728 5731 5735 5738 5741 5744 5746 5749 5751 5753 5755 5757 5759 5761 5764 5766 5767 5769 5770 5771 5773 5774 5775 5776 5776 5777 5778 5778 5778 5778 5778 5778 5777 5776 5775 5774 5773
5689 5694 5698 5703 5707 5712 5716 5720 5724 5728 5731 5734 5737 5739 5742 5744 5747 5749 5751 5753 5755 5757 5759 5761 5762 5764 5765 5766 5767 5768 5769 5769 5769 5770 5770 5770 5770 5769 5769 5768 5767 5766 5765 5763
5682 5686 5690 5695 5699 5704 5708 5713 5717 5720 5724 5727 5730 5733 5735 5737 5740 5742 5744 5746 5748 5750 5752 5754 5755 5757 5758 5759 5760 5761 5761 5761 5762 5762 5762 5761 5761 5760 5760 5759 5757 5756 5754 5753
5674 5678 5683 5687 5691 5696 5700 5705 5709 5713 5716 5719 5722 5725 5728 5730 5732 5735 5737 5739 5741 5743 5745 5746 5748 5749 5751 5752 5752 5753 5753 5753 5753 5753 5753 5752 5752 5751 5750 5748 5747 5745 5743 5741
5666 5670 5675 5679 5683 5688 5692 5696 5701 5705 5708 5711 5715 5717 5720 5723 5725 5727 5730 5732 5733 5735 5737 5739 5740 5741 5742 5743 5744 5744 5745 5745 5745 5744 5744 5743 5742 5741 5740 5738 5736 5734 5732 5730
5658 5662 5667 5671 5675 5680 5684 5688 5692 5696 5700 5703 5706 5709 5712 5714 5717 5719 5721 5723 5725 5727 5729 5730 5731 5732 5733 5734 5735 5735 5735 5735 5735 5735 5734 5733 5732 5731 5729 5727 5725 5723 5721 5718
5650 5654 5659 5663 5667 5671 5675 5679 5683 5687 5691 5694 5697 5700 5703 5706 5709 5711 5713 5715 5717 5719 5720 5721 5723 5724 5724 5725 5726 5726 5726 5725 5725 5724 5723 5722 5721 5720 5718 5716 5714 5711 5709 5706
5642 5646 5650 5655 5659 5663 5667 5671 5675 5678 5682 5685 5688 5692 5694 5697 5700 5702 5704 5706 5708 5710 5711 5713 5714 5714 5715 5715 5716 5716 5715 5715 5715 5714 5713 5711 5710 5708 5706 5704 5702 5699 5697 5693
5634 5638 5642 5646 5650 5654 5658 5662 5666 5669 5673 5677 5680 5682 5685 5688 5690 5693 5695 5697 5699 5701 5702 5703 5704 5705 5705 5706 5706 5705 5705 5704 5704 5703 5702 5700 5699 5697 5695 5693 5690 5687 5684 5681